Change the Weather History Date:

Sunday, January 5, 2014

  Actual Average Record
Temperature  
Mean Temperature 25 °F 25 °F  
Max Temperature 35 °F 31 °F 54 °F (1934)
Min Temperature 15 °F 19 °F -8 °F (1950)
Degree Days  
Heating Degree Days 40 40  
Month to date heating degree days 183 201  
Since 1 July heating degree days 3083 2950  
Cooling Degree Days 0 0  
Month to date cooling degree days 0 0  
Year to date cooling degree days 0 0  
Moisture  
Dew Point 14 °F    
Average Humidity 62    
Maximum Humidity 80    
Minimum Humidity 44    
Precipitation  
Precipitation 0.00 in 0.08 in 0.66 in (1931)
Month to date precipitation 0.03 0.41  
Year to date precipitation 0.03 0.41  
Sea Level Pressure  
Sea Level Pressure 30.61 in    
Wind  
Wind Speed 6 mph (NNW)    
Max Wind Speed 15 mph    
Max Gust Speed 18 mph    
Visibility 10 miles    
Events      
T = Trace of Precipitation, MM = Missing Value Source: NWS Daily Summary

Daily Weather History Graph

Daily Weather History Graph

Search for Another Location

Airport or City:

Trip Planner

Search our weather history database for the weather conditions in past years. The results will help you decide how hot, cold, wet, or windy it might be!

Date:

Astronomy

Jan. 05, 2014 Rise Set
Actual Time 7:49 AM PST 4:18 PM PST
Civil Twilight 7:12 AM PST 4:54 PM PST
Nautical Twilight 6:33 AM PST 5:34 PM PST
Astronomical Twilight 5:55 AM PST 6:12 PM PST
Moon 10:07 AM PST 10:20 PM PST
Length of Visible Light 9h 41m
Length of Day
8h 28m
Waxing Crescent, 25% of the Moon is Illuminated
Jan 5
Waxing Crescent
Jan 7
First Quarter
Jan 15
Full
Jan 23
Last Quarter
Jan 30
New

Hourly Weather History & Observations

Time (PST) Temp. Windchill Dew Point Humidity Pressure Visibility Wind Dir Wind Speed Gust Speed Precip Events Conditions
12:53 AM 19.9 °F - 12.0 °F 71% 30.53 in 10.0 mi Calm Calm - N/A   Clear
1:53 AM 19.0 °F 12.3 °F 12.0 °F 74% 30.56 in 10.0 mi North 4.6 mph - N/A   Clear
2:53 AM 18.0 °F - 12.0 °F 78% 30.58 in 10.0 mi Calm Calm - N/A   Clear
3:53 AM 23.0 °F 12.4 °F 14.0 °F 68% 30.58 in 10.0 mi North 10.4 mph - N/A   Clear
4:53 AM 21.0 °F 11.4 °F 12.0 °F 68% 30.60 in 10.0 mi NNW 8.1 mph - N/A   Clear
5:53 AM 21.0 °F 10.6 °F 12.9 °F 71% 30.61 in 10.0 mi NNW 9.2 mph - N/A   Clear
6:53 AM 19.9 °F - 12.0 °F 71% 30.63 in 10.0 mi Calm Calm - N/A   Clear
7:53 AM 21.9 °F 11.7 °F 12.9 °F 68% 30.65 in 10.0 mi North 9.2 mph - N/A   Clear
8:53 AM 24.1 °F 14.4 °F 12.9 °F 62% 30.66 in 10.0 mi North 9.2 mph - N/A   Clear
9:53 AM 27.0 °F 17.3 °F 14.0 °F 58% 30.66 in 10.0 mi North 10.4 mph - N/A   Clear
10:53 AM 30.0 °F 20.0 °F 16.0 °F 56% 30.65 in 10.0 mi North 12.7 mph - N/A   Clear
11:53 AM 33.1 °F 24.4 °F 17.1 °F 52% 30.64 in 10.0 mi North 11.5 mph - N/A   Clear
12:53 PM 34.0 °F 26.6 °F 17.1 °F 50% 30.63 in 10.0 mi North 9.2 mph - N/A   Clear
1:53 PM 33.1 °F 27.7 °F 17.1 °F 52% 30.62 in 10.0 mi ESE 5.8 mph - N/A   Clear
2:53 PM 35.1 °F - 16.0 °F 46% 30.62 in 10.0 mi Calm Calm - N/A   Clear
3:53 PM 30.9 °F - 18.0 °F 59% 30.62 in 10.0 mi Calm Calm - N/A   Clear
4:53 PM 24.1 °F - 15.1 °F 69% 30.62 in 10.0 mi Calm Calm - N/A   Clear
5:53 PM 21.9 °F 14.5 °F 14.0 °F 72% 30.62 in 10.0 mi WNW 5.8 mph - N/A   Clear
6:53 PM 19.9 °F 13.4 °F 12.9 °F 74% 30.62 in 10.0 mi WNW 4.6 mph - N/A   Clear
7:53 PM 19.9 °F 13.4 °F 12.9 °F 74% 30.62 in 10.0 mi NW 4.6 mph - N/A   Clear
8:53 PM 17.1 °F 10.0 °F 12.0 °F 81% 30.61 in 10.0 mi NW 4.6 mph - N/A   Clear
9:53 PM 16.0 °F 7.4 °F 10.9 °F 81% 30.61 in 10.0 mi WNW 5.8 mph - N/A   Clear
10:53 PM 19.0 °F 11.1 °F 12.9 °F 77% 30.60 in 10.0 mi NW 5.8 mph - N/A   Clear
11:53 PM 19.9 °F - 14.0 °F 78% 30.58 in 10.0 mi Calm Calm - N/A   Clear